GFSNGP_sfc_rhum_084.txt.gz
RH
78 86 86 74 54 40 41 44 51 49 46 39 36 34 34 33 36 32 30 39 53 59 66 67 73 75 74 75 77 75 76 78 78 85 91 94 98 97 97 95 95 93 98 99
82 62 69 68 51 44 45 54 51 49 46 36 34 35 37 33 32 31 32 30 36 43 54 65 68 73 82 86 90 87 86 88 99 99 99 99 99 99 99 99 99 99 99 99
80 70 74 78 50 46 51 52 50 57 46 36 35 36 35 30 33 32 30 33 31 39 42 53 85 93 98 98 99 99 99 99 99 99 99 99 99 99 99 99 99 99 99 99
95 92 98 66 45 38 44 43 49 49 43 39 36 32 31 32 31 34 32 32 36 45 91 98 99 98 98 97 98 98 98 98 99 99 99 99 99 99 99 99 99 98 99 98
96 91 92 65 58 58 59 46 38 43 45 40 34 34 33 30 34 31 34 32 45 81 96 99 98 93 95 98 98 98 98 99 99 99 99 99 99 99 99 98 98 97 96 98
99 97 94 69 56 60 52 69 49 49 47 42 37 50 38 29 36 35 43 75 94 96 95 92 95 92 94 97 97 98 98 98 96 97 98 98 97 97 96 93 93 90 92 92
97 97 91 70 81 74 74 70 58 52 46 42 38 43 33 37 65 84 95 98 94 93 93 92 91 89 95 94 97 92 92 93 93 92 94 94 94 93 93 92 90 93 92 88
99 99 95 72 79 90 78 78 68 68 61 51 48 46 51 60 92 98 96 96 96 96 97 94 88 87 91 93 86 86 87 89 90 89 87 87 90 92 90 90 90 91 91 90
88 89 73 70 70 59 66 84 66 64 60 61 60 53 75 90 98 98 96 97 96 96 96 92 87 82 91 91 83 78 78 80 81 79 82 83 87 88 92 89 90 91 88 92
88 57 66 54 50 55 59 65 68 53 63 61 64 73 89 91 96 97 96 92 90 89 90 92 88 90 90 84 75 74 78 80 77 78 76 74 76 82 87 92 92 89 91 92
72 64 58 55 59 58 61 63 61 60 63 62 74 81 86 90 86 80 80 81 82 84 83 79 71 68 66 66 68 73 76 72 71 74 76 80 84 86 92 97 97 97 97 96
66 50 66 56 54 61 62 62 66 72 72 66 72 84 76 74 72 72 73 68 70 68 69 68 67 66 63 63 67 75 80 82 85 84 87 87 87 92 92 93 91 93 95 97
62 59 62 59 58 67 76 74 74 73 75 77 76 72 69 70 70 75 75 79 82 82 80 78 78 80 77 76 76 80 84 87 91 91 92 93 94 95 95 96 94 93 92 91
62 76 72 55 69 81 72 75 74 66 64 66 68 68 71 78 80 83 85 83 83 86 88 90 92 94 88 85 87 89 91 93 91 93 93 93 93 93 92 93 95 94 90 92
78 76 74 72 79 76 71 69 69 70 69 69 67 73 77 82 87 89 87 85 86 89 90 87 88 95 92 88 88 92 91 92 92 92 92 91 89 88 88 89 89 87 87 87
82 80 82 86 82 76 74 75 78 78 76 77 80 82 82 82 84 84 80 77 82 90 92 93 93 96 95 92 90 87 86 87 84 83 83 85 88 90 90 92 92 95 95 96
92 87 92 91 88 84 83 79 80 81 81 81 83 82 81 83 84 89 92 90 92 94 95 94 96 95 89 81 79 78 80 81 85 85 89 91 92 94 94 96 96 95 96 96
94 91 88 86 86 84 84 81 80 80 83 83 87 89 90 90 94 94 95 93 92 94 94 95 87 78 76 75 75 79 84 86 86 90 89 94 93 92 96 97 97 97 99 96
88 93 89 85 84 86 90 93 93 92 91 89 90 93 91 91 91 94 93 92 93 92 96 87 84 76 75 79 77 83 87 88 87 89 90 95 95 94 96 98 99 100 99 98
92 89 89 92 89 91 95 93 92 93 91 90 89 90 93 94 94 94 92 94 94 92 77 70 69 70 72 78 81 82 90 91 89 95 96 96 98 100 100 98 98 100 100 100
95 94 94 93 95 93 92 90 89 91 90 86 89 93 94 95 94 94 90 88 90 81 71 74 73 76 76 78 81 92 93 94 95 97 98 100 100 100 100 100 100 100 100 100
96 95 95 95 95 95 95 92 88 92 94 94 94 94 92 94 94 93 94 88 78 78 73 77 80 87 84 86 85 92 93 94 97 98 100 100 100 100 100 100 100 100 100 100
96 96 96 95 94 96 95 94 94 93 94 94 94 94 91 91 89 88 91 71 72 82 80 89 92 93 94 94 95 96 97 99 99 100 100 100 100 100 100 100 100 100 100 100
95 95 95 95 94 92 93 95 93 93 94 94 94 94 87 92 94 85 85 90 91 91 92 94 97 100 96 97 98 99 99 100 100 100 100 100 100 100 100 100 100 100 100 100
94 95 94 93 91 92 92 92 91 91 90 90 91 87 80 78 90 94 91 90 93 91 95 97 100 100 99 99 99 100 100 100 100 100 100 100 100 100 100 100 100 100 100 100
93 92 93 94 92 91 91 88 90 92 89 93 93 94 94 91 88 88 89 89 91 91 93 97 99 99 99 100 100 100 100 99 100 100 100 100 100 100 100 100 100 100 100 100
94 93 92 92 91 91 92 92 92 93 89 92 96 95 93 94 92 90 92 94 95 96 99 100 100 100 100 100 100 100 100 100 100 100 100 100 100 100 100 100 100 100 100 100

GFSNGP_sfc_rhum_087.txt.gz
RH
63 58 60 67 58 63 71 65 51 35 33 29 26 30 27 29 29 30 27 25 36 48 53 56 62 67 66 63 65 66 66 68 69 68 68 68 72 72 73 77 80 79 84 87
82 73 64 58 52 48 61 56 52 37 34 31 28 30 30 29 29 29 30 26 26 37 48 56 60 65 69 70 67 67 68 70 66 66 71 75 77 80 86 88 92 93 95 96
76 64 62 65 54 57 53 45 43 47 38 33 32 32 33 30 30 30 28 28 28 29 37 49 57 63 69 73 73 70 68 68 83 88 91 97 98 98 98 99 99 99 99 99
82 79 78 36 43 47 56 47 36 38 38 33 32 31 30 29 28 29 29 27 29 30 44 61 71 72 82 84 91 91 91 95 96 98 98 98 99 99 98 98 98 98 98 97
87 69 54 41 52 59 84 73 50 40 35 34 31 34 31 27 28 28 29 30 30 36 74 85 82 82 84 91 94 96 97 98 98 98 98 98 98 98 98 96 96 96 95 95
85 87 80 56 72 70 57 77 68 61 49 44 40 50 32 30 35 38 33 42 59 73 82 87 84 81 85 94 95 96 97 97 96 96 97 97 96 96 94 92 93 92 94 94
82 84 63 67 72 73 76 72 72 64 64 60 46 38 35 39 76 86 83 81 78 77 85 89 85 84 91 92 95 94 92 92 92 91 92 93 92 90 91 92 91 93 93 90
88 92 88 64 70 73 83 75 70 65 68 67 62 57 53 82 91 91 90 92 84 91 91 86 83 84 92 95 88 86 86 88 88 86 84 87 91 90 88 90 92 91 92 92
74 74 77 58 64 70 75 73 70 70 70 58 65 65 78 92 94 95 93 95 93 90 92 87 83 84 93 90 79 79 80 81 80 79 80 83 89 89 89 87 90 90 87 90
70 53 57 61 54 52 51 60 52 54 63 63 70 79 90 93 94 93 92 90 87 89 93 94 86 82 76 74 72 71 75 76 74 77 79 81 83 85 88 90 91 90 91 93
58 53 54 48 56 50 49 50 58 56 54 78 79 83 79 82 85 85 84 81 77 75 72 72 68 68 66 67 66 69 71 71 75 81 84 86 88 86 89 96 95 93 92 88
61 47 52 45 49 56 57 68 67 67 67 73 82 87 80 82 81 82 81 76 76 74 72 70 68 68 68 66 66 70 75 80 86 85 85 81 84 92 92 90 88 88 89 86
50 49 58 58 60 56 64 67 66 69 75 86 78 78 81 86 89 89 86 85 83 83 85 86 86 90 87 85 84 85 85 85 88 86 85 86 83 83 90 87 82 82 82 83
52 56 63 53 55 66 66 68 64 63 66 73 83 88 96 95 92 91 94 92 92 92 92 91 91 94 94 83 83 86 87 88 83 80 80 80 78 78 76 79 84 83 82 82
50 62 57 64 69 67 66 65 68 69 71 74 73 78 81 87 90 91 92 94 94 93 94 92 92 96 92 89 90 92 88 84 83 82 78 77 75 74 71 72 74 73 68 70
74 73 70 75 77 71 67 70 76 77 77 79 81 82 81 80 81 82 78 74 80 90 94 95 94 96 95 92 87 80 76 79 73 70 71 72 72 72 72 74 75 76 77 76
88 78 82 83 81 78 75 72 74 76 78 80 81 78 76 79 82 87 92 92 93 94 95 93 96 94 89 78 71 68 67 70 77 70 72 73 75 74 74 76 77 77 84 89
85 85 81 85 84 78 77 76 75 76 82 82 86 89 90 90 93 95 95 94 93 94 93 93 83 74 67 64 64 67 70 70 71 75 74 78 74 72 76 77 74 75 77 80
82 85 80 76 75 78 82 88 91 92 92 91 90 93 91 91 91 94 92 91 90 90 93 74 76 68 66 68 65 69 73 75 71 70 73 78 80 74 79 81 82 83 78 80
88 86 86 88 85 88 94 92 91 92 92 90 90 90 92 94 93 93 90 94 90 81 61 59 58 59 62 67 69 67 75 78 73 80 81 79 83 85 83 81 79 83 85 83
96 93 93 92 94 95 94 92 91 91 91 88 88 91 93 95 94 94 88 84 88 75 64 68 62 61 60 62 64 79 81 84 84 83 82 85 85 83 86 86 85 84 83 83
96 95 95 95 94 95 95 95 93 95 94 94 94 94 93 94 94 93 93 86 78 72 66 68 70 75 71 73 72 82 78 79 82 82 84 85 86 87 87 84 84 85 86 86
95 94 95 95 94 95 95 95 95 94 94 95 94 94 91 89 85 85 87 64 65 74 69 79 85 87 85 85 85 85 83 83 85 87 89 90 88 87 85 85 86 87 88 88
95 94 95 94 94 92 94 95 94 94 94 94 94 94 87 91 92 80 78 83 84 84 84 87 89 89 83 87 85 85 84 86 89 91 90 93 90 88 86 89 87 88 89 89
94 95 94 93 91 92 93 93 92 92 92 91 90 88 81 72 87 84 85 84 81 79 86 91 91 88 85 85 86 89 90 90 90 89 89 89 89 90 88 88 91 90 91 91
93 91 92 93 91 90 90 88 90 91 89 93 92 93 91 85 82 81 83 80 78 82 87 91 89 89 89 88 90 91 90 88 89 89 90 88 88 87 90 90 92 91 92 92
92 92 90 90 90 90 90 90 91 93 89 91 94 89 86 86 86 82 84 85 87 91 93 93 91 90 89 89 90 91 91 91 95 88 89 89 90 92 93 93 93 93 93 93

GFSNGP_sfc_rhum_090.txt.gz
RH
39 38 38 36 33 35 38 35 50 40 33 22 19 20 18 15 15 18 18 18 24 29 33 36 41 44 44 45 49 50 49 51 54 57 56 55 56 58 60 62 59 54 56 57
59 46 40 38 28 26 29 31 28 30 36 23 20 17 18 18 17 18 19 18 17 20 27 34 37 42 45 48 50 53 53 53 50 52 52 55 58 59 60 58 57 58 61 64
51 41 45 54 42 32 25 24 31 43 32 23 21 19 19 20 19 19 18 18 18 18 22 30 36 40 43 48 50 54 55 54 54 54 55 56 56 57 61 66 70 83 96 98
61 55 59 22 23 26 29 30 32 42 35 28 23 18 16 19 21 20 21 19 19 19 20 24 32 38 44 45 52 56 56 54 55 58 61 68 76 86 96 97 98 97 97 95
75 51 34 28 31 26 40 32 51 54 50 42 30 25 24 20 19 22 20 19 19 18 18 35 37 41 50 53 53 59 66 77 80 81 93 97 98 98 96 95 95 95 93 94
65 73 65 46 34 41 42 51 51 52 52 52 49 51 31 22 25 32 27 26 26 28 38 44 49 52 57 72 78 92 95 95 94 93 94 96 94 94 92 91 92 90 92 91
74 79 52 30 26 45 67 58 48 47 52 56 60 55 48 38 43 62 57 52 48 47 52 57 60 65 80 91 95 93 90 90 90 90 91 90 91 89 89 91 90 92 91 89
77 91 78 37 48 72 54 46 42 42 54 81 58 54 52 59 73 80 75 65 63 70 79 76 72 79 90 93 87 84 84 85 86 85 82 83 86 86 85 87 90 91 92 92
53 52 39 47 43 38 39 46 44 43 45 74 69 59 65 82 83 87 84 78 77 85 87 84 81 81 90 87 79 78 78 80 80 79 80 80 83 86 86 84 88 88 86 90
46 34 28 28 33 37 39 41 33 43 56 50 53 68 80 85 86 89 88 87 83 84 87 90 84 78 76 76 70 69 76 79 78 79 81 81 80 82 85 88 89 87 87 88
38 32 30 29 27 28 34 38 38 49 58 53 58 71 75 81 85 86 84 78 76 79 81 81 76 71 65 64 64 72 76 77 78 80 82 85 86 85 87 95 95 94 93 89
48 33 34 33 28 39 42 43 54 58 60 57 61 73 87 89 80 80 80 78 77 76 74 70 66 63 64 62 65 69 74 76 80 82 85 84 82 88 87 84 81 82 82 83
38 31 35 36 36 36 48 51 56 60 71 65 71 78 78 95 100 98 93 93 89 94 86 84 82 80 73 76 83 87 88 88 89 89 89 88 84 78 85 85 86 85 82 79
30 33 41 34 35 42 52 56 58 62 68 79 83 83 89 98 99 99 97 98 96 96 94 93 93 96 96 94 93 92 93 93 86 82 77 76 73 74 72 77 82 81 76 73
36 41 41 38 44 44 53 57 58 62 67 71 75 80 79 82 89 91 94 96 95 94 95 94 94 97 97 95 90 87 82 79 78 78 76 74 71 68 65 65 64 62 59 59
61 54 49 49 51 56 56 60 64 66 67 76 81 81 80 79 80 85 82 77 82 90 95 95 96 97 96 94 89 79 72 73 67 64 64 64 64 64 64 65 64 65 65 64
74 67 66 67 61 64 61 58 63 63 68 72 76 75 75 79 82 88 93 92 92 95 96 95 96 96 90 70 63 59 58 59 66 61 62 62 63 64 63 66 66 67 75 79
67 68 73 77 78 72 67 65 65 67 73 76 81 89 91 90 93 94 95 95 94 94 95 94 81 65 59 54 55 60 65 64 63 66 63 67 63 61 64 64 60 63 68 71
72 76 75 73 71 70 71 78 86 89 90 91 94 94 92 91 91 94 94 94 93 90 92 70 66 58 54 58 54 55 60 62 59 59 63 66 70 63 70 72 72 72 67 69
75 79 82 84 84 87 93 91 90 91 92 94 94 92 94 94 92 94 92 94 91 81 54 48 46 48 50 53 56 53 64 67 61 70 73 71 77 80 77 69 69 74 78 76
90 88 90 90 92 93 94 93 93 91 95 94 94 94 94 94 94 92 87 85 84 60 50 52 44 44 44 47 50 70 74 76 76 75 76 79 78 75 77 77 77 78 79 79
89 90 91 93 93 95 94 93 92 94 94 94 94 94 94 94 93 92 90 76 59 62 54 55 56 60 55 60 60 73 67 70 73 76 78 78 79 79 79 78 79 80 79 80
90 88 90 93 92 93 94 93 94 94 94 94 94 94 92 90 87 82 77 57 56 62 60 73 76 75 72 77 78 77 76 76 78 78 79 80 80 80 78 78 79 80 80 80
92 91 92 93 91 90 92 94 93 94 94 94 94 94 89 93 90 69 71 72 72 74 77 80 80 75 71 80 80 79 78 80 80 81 80 76 80 79 79 80 78 80 81 80
91 92 92 91 88 86 89 91 91 92 92 92 93 90 87 75 82 77 77 76 73 70 79 80 76 74 79 81 80 80 80 81 81 79 79 80 80 80 80 80 81 82 83 82
88 84 86 90 84 82 84 86 87 88 89 93 92 90 87 81 76 72 74 72 72 71 76 80 80 80 80 78 79 79 78 75 76 77 78 78 78 78 80 80 82 82 83 83
90 89 86 87 87 87 87 88 89 91 89 88 88 82 77 79 77 73 75 79 80 80 80 80 80 76 77 78 77 77 77 78 85 76 79 80 80 82 83 83 84 84 84 84

GFSNGP_sfc_rhum_096.txt.gz
RH
23 21 20 21 27 28 32 34 42 34 28 22 22 21 20 19 20 18 16 15 16 24 30 31 38 43 44 50 52 52 51 57 65 68 68 68 70 69 68 69 66 66 68 68
37 24 20 25 22 22 21 20 21 25 28 20 18 18 19 19 18 18 18 16 14 15 22 30 33 41 44 47 53 52 53 56 56 64 64 67 69 70 71 70 70 72 71 75
53 34 27 41 27 20 17 15 17 23 22 18 19 19 21 24 24 21 18 16 15 19 21 28 34 37 42 46 50 54 54 52 53 59 62 67 66 68 71 76 79 86 94 93
65 53 64 32 15 15 20 19 17 28 18 13 18 27 26 29 44 46 40 37 37 28 24 24 25 32 38 39 45 55 56 53 52 56 61 63 67 72 92 93 94 95 95 94
68 58 37 27 22 26 42 39 40 42 40 41 41 39 32 38 42 46 47 52 50 44 39 34 25 25 34 36 41 48 54 54 52 56 61 68 90 95 94 94 95 94 93 94
71 71 64 40 26 22 28 51 42 40 43 47 43 62 45 41 44 44 46 54 55 53 45 40 31 31 32 38 43 52 56 59 67 79 91 93 93 95 93 92 93 91 93 92
80 79 54 34 26 27 49 70 43 41 44 44 44 46 44 42 44 43 54 60 61 56 53 44 47 38 55 80 90 88 86 87 88 88 91 91 92 91 91 92 93 94 96 95
76 77 78 26 27 47 47 38 33 35 45 45 45 44 41 39 50 56 67 70 70 70 77 73 72 77 86 94 87 85 86 88 88 88 85 87 91 90 89 90 92 94 94 95
53 54 40 35 42 38 30 29 30 38 33 38 42 39 38 53 69 74 73 76 79 83 88 84 78 78 90 90 85 88 89 90 89 86 86 86 89 91 92 90 92 93 91 92
80 49 40 42 40 38 23 25 28 32 38 37 42 46 58 71 74 78 78 79 80 84 89 90 86 84 84 83 82 83 88 88 86 88 88 87 86 87 88 91 93 92 92 94
64 32 32 29 33 36 33 30 29 39 39 44 64 72 79 80 85 85 85 84 84 88 88 88 84 84 82 81 81 86 87 88 90 90 90 92 93 94 94 95 92 93 94 94
63 42 42 40 32 30 30 32 43 45 46 56 66 71 80 89 88 84 88 85 88 91 90 90 88 88 87 83 82 85 88 89 91 90 91 88 87 93 96 95 94 94 95 94
46 29 31 31 26 30 34 38 46 50 60 69 79 82 89 95 99 96 92 90 91 94 92 91 92 95 92 92 92 94 94 92 92 91 91 91 91 90 93 95 93 94 90 79
28 34 38 41 41 34 36 43 49 51 62 74 80 84 88 95 95 97 97 97 98 97 96 94 93 96 97 97 95 95 97 97 96 96 95 95 94 94 93 92 92 85 71 73
48 44 43 39 39 41 40 40 46 48 59 70 74 80 83 86 91 95 96 97 97 96 97 96 95 98 97 95 96 96 95 96 97 96 96 96 94 91 86 85 86 88 88 77
52 48 45 51 48 48 50 52 55 52 58 70 81 85 85 83 84 88 88 90 92 96 97 96 96 98 97 95 95 95 96 96 94 92 92 92 89 84 78 77 77 80 83 83
63 65 63 62 62 61 59 57 63 56 66 75 80 79 80 85 89 92 94 95 95 96 96 96 97 96 96 96 94 93 90 86 82 74 74 74 76 76 76 79 81 84 88 86
58 59 60 68 72 74 75 78 77 75 79 78 85 92 94 92 94 96 96 96 95 95 96 96 96 95 94 90 85 76 69 67 69 73 72 76 74 73 77 79 79 81 83 81
62 66 71 74 80 89 91 92 94 94 95 94 92 94 94 94 93 96 95 94 95 94 96 74 68 59 56 61 59 64 70 73 72 72 75 78 81 78 82 84 83 84 82 84
71 72 76 79 82 89 94 94 92 93 94 93 93 94 94 95 94 94 93 95 95 91 61 50 48 52 54 61 66 68 76 80 77 82 85 84 87 88 85 81 84 87 88 89
90 84 85 83 88 89 94 94 92 90 95 94 92 94 94 95 95 94 92 90 92 60 49 53 52 55 56 63 67 80 82 84 84 85 85 86 86 85 86 87 87 89 90 89
89 91 90 90 89 91 92 91 90 94 94 94 94 93 93 95 94 94 95 93 92 85 70 68 68 71 67 71 73 82 79 80 83 85 87 87 87 88 88 88 90 90 90 91
92 90 89 93 92 91 92 93 94 93 94 95 95 95 93 93 92 91 93 92 88 89 85 89 86 82 79 85 85 85 84 84 86 86 88 89 89 89 90 91 90 90 91 93
88 88 90 89 89 86 92 94 93 94 94 94 94 94 91 93 95 92 92 92 91 91 92 91 89 85 84 88 87 86 86 87 87 88 87 86 89 90 90 93 92 90 92 90
84 87 87 88 85 87 90 91 91 93 93 94 94 93 92 91 92 93 90 91 90 88 91 87 85 83 87 88 90 92 93 92 88 88 88 90 91 91 90 91 92 92 92 92
87 85 87 89 88 89 89 86 90 92 91 93 94 95 94 93 92 88 87 85 86 87 89 89 87 86 87 85 86 86 85 84 87 88 89 90 90 90 92 91 91 92 94 94
85 87 87 89 91 90 89 90 92 94 93 94 94 94 91 90 86 83 84 87 88 89 89 90 88 83 84 85 84 86 88 88 95 89 90 91 92 93 93 93 94 94 93 94

GFSNGP_sfc_rhum_102.txt.gz
RH
51 43 37 44 34 40 76 70 70 56 52 61 51 50 60 55 53 57 61 60 58 61 82 71 79 82 83 80 80 82 84 82 82 81 81 82 85 85 82 82 80 81 80 80
66 48 48 48 39 35 40 57 49 35 30 32 43 54 68 56 53 58 66 59 59 56 58 66 66 80 76 80 81 82 84 86 82 83 85 83 84 86 87 84 81 83 80 80
76 62 54 60 48 36 31 35 42 38 63 40 60 59 59 63 58 61 63 59 64 65 66 70 77 78 75 78 82 79 81 84 85 85 85 87 86 85 85 89 87 84 91 95
92 71 80 46 33 35 58 59 56 58 52 52 56 54 54 55 64 72 67 71 72 72 78 80 79 77 78 75 73 80 78 79 84 85 84 85 88 89 91 94 98 98 98 97
90 93 65 38 49 49 56 70 58 60 53 49 50 54 55 50 66 75 77 76 75 76 81 83 82 78 80 84 83 72 74 75 80 84 87 88 90 91 99 99 98 98 96 97
93 87 90 58 53 47 46 89 59 58 60 58 54 81 70 70 75 80 80 78 80 79 80 86 85 81 86 90 93 97 98 90 91 91 89 91 99 98 97 96 97 96 97 96
97 97 83 55 45 47 64 72 58 55 56 59 64 64 58 82 84 79 80 79 77 79 85 86 83 86 92 91 96 95 94 98 98 98 98 97 97 95 95 96 96 96 97 97
93 95 83 45 51 62 65 61 56 56 62 63 58 69 85 84 84 82 84 83 82 85 86 86 84 87 91 96 91 91 93 96 98 97 95 93 95 95 94 93 95 96 96 97
76 73 54 53 62 65 54 53 63 60 56 64 80 92 89 90 90 88 88 86 82 89 87 86 84 84 94 93 90 92 94 96 95 93 93 92 94 96 96 94 94 95 93 94
76 63 76 77 63 53 47 61 60 65 81 85 95 91 91 90 90 89 87 87 82 85 91 93 87 85 86 86 86 88 94 94 93 94 93 90 88 88 90 93 93 92 93 94
89 81 73 71 65 69 61 61 77 80 84 88 89 94 92 94 92 91 88 83 82 86 91 93 88 88 84 84 84 89 90 91 91 91 91 92 92 92 93 96 92 91 94 94
99 91 90 81 79 63 65 72 78 83 88 88 87 86 86 95 90 90 96 88 88 89 92 92 88 89 88 83 83 87 89 89 92 89 90 89 91 96 93 93 92 91 90 91
96 88 86 65 63 61 69 74 78 83 84 92 88 92 93 96 97 92 95 95 96 98 95 95 95 94 95 97 92 90 92 90 91 90 89 89 89 89 94 96 93 94 95 95
82 81 90 75 73 64 69 74 81 83 85 88 90 90 92 95 94 96 98 98 96 96 96 96 96 97 98 98 97 96 94 92 92 93 93 92 91 92 89 89 93 96 94 90
70 67 69 68 68 72 73 73 81 85 87 90 88 89 88 87 91 95 96 97 96 95 96 96 96 98 97 97 96 97 96 96 96 95 95 95 94 94 94 94 93 93 93 92
68 70 70 80 79 76 80 83 88 88 87 88 90 90 87 85 86 90 90 89 93 96 97 96 96 98 95 96 96 95 95 96 94 94 94 93 93 93 93 92 90 89 90 91
83 88 86 87 84 83 83 81 82 80 86 83 84 80 80 86 90 92 95 95 95 96 96 95 97 96 94 95 96 96 95 94 95 93 92 92 92 92 89 89 90 91 94 90
76 80 81 85 87 88 87 87 88 86 87 85 88 93 94 93 96 96 96 94 92 94 95 96 96 94 95 94 94 94 94 94 92 93 92 91 88 86 88 88 88 91 94 91
74 78 80 79 83 88 90 92 93 94 96 95 94 96 95 95 94 95 95 94 93 92 97 95 95 94 93 94 92 93 94 94 91 81 81 84 88 86 90 91 92 92 91 93
80 79 82 85 87 90 96 97 94 94 95 95 94 94 95 95 94 94 92 95 96 95 93 93 93 93 93 93 92 90 89 90 88 90 90 90 92 94 93 93 94 95 96 96
92 87 89 89 94 95 97 96 95 93 96 95 94 95 95 95 95 94 93 91 96 94 92 94 93 93 92 91 84 90 90 91 91 91 93 94 94 95 95 94 96 96 97 97
99 99 98 96 97 97 96 96 95 95 95 95 95 94 93 95 94 94 95 94 94 95 93 93 93 94 91 89 88 92 90 90 91 92 93 93 94 95 96 96 97 97 97 98
99 98 97 98 98 98 96 95 96 95 96 96 95 95 94 95 95 92 94 95 93 94 93 94 92 92 91 93 93 93 93 92 93 94 94 95 95 95 96 96 99 97 98 99
99 98 98 97 93 91 95 96 95 95 95 95 95 96 94 94 96 94 94 94 94 94 95 95 94 92 91 94 94 94 93 93 93 93 93 92 96 95 96 96 99 100 100 100
97 98 96 95 95 95 95 95 93 94 94 95 95 94 94 94 93 96 95 95 95 94 95 91 91 91 93 94 95 95 95 94 95 95 95 95 96 96 97 97 100 100 100 100
96 96 98 97 97 96 94 90 93 94 93 95 95 96 96 95 95 94 95 95 94 93 94 95 94 93 94 93 94 94 94 92 93 94 94 96 95 97 99 100 100 100 100 100
96 94 94 94 94 94 94 93 94 95 94 95 95 96 94 95 96 95 95 95 95 95 95 95 94 93 93 93 93 93 94 94 94 96 98 97 99 100 100 100 100 100 100 100